Theta_e
296 297 298 297 297 298 298 301 298 301 305 310 311 314 320 322 324 327 329 330 332 335 342 345 350 352 353 354 353 355 356 358 358 361 361 361 360 359 354 362 363 365 365 365
292 296 296 295 297 297 298 300 302 303 303 312 313 316 318 321 322 329 331 333 335 339 339 345 348 352 353 354 354 356 355 356 359 361 361 361 360 360 360 359 362 364 364 364
288 294 294 290 296 297 298 300 300 297 304 309 308 313 315 319 316 322 329 332 335 336 339 344 349 353 355 356 357 356 356 357 359 360 360 360 361 361 361 360 361 363 363 365
289 291 282 295 301 301 298 299 300 301 302 304 306 310 314 319 316 320 328 331 333 335 338 340 341 348 358 358 357 359 357 358 358 359 359 361 361 360 361 361 361 362 363 364
285 286 291 294 298 298 297 297 302 301 304 307 308 307 310 315 320 321 326 331 334 335 337 345 346 345 350 358 357 356 359 358 359 359 359 361 360 361 361 361 361 361 363 365
289 283 282 293 300 303 302 292 303 307 307 309 312 305 306 320 326 329 332 334 336 338 339 341 347 347 345 353 359 356 356 359 363 361 362 361 362 362 362 362 361 362 363 365
288 286 289 298 299 302 289 293 306 308 308 309 309 313 321 323 325 327 328 331 336 341 343 348 356 355 351 348 355 360 359 363 361 366 363 364 365 365 363 363 363 362 362 364
290 287 284 302 300 294 301 305 305 305 307 306 308 314 318 321 322 325 326 327 333 340 343 345 344 344 355 350 359 365 364 360 365 366 364 365 365 366 366 364 363 361 362 362
291 292 301 302 300 303 303 302 303 304 305 307 306 311 315 317 320 321 324 326 326 329 335 335 337 343 347 358 363 365 366 362 365 366 365 365 364 365 364 365 362 360 360 359
290 295 296 298 301 302 302 302 304 305 305 305 305 310 312 314 316 319 320 322 324 326 327 327 330 332 337 339 343 364 365 361 365 365 362 364 365 365 364 362 362 360 359 360
289 294 293 296 296 297 297 300 302 305 304 304 308 309 311 313 315 317 318 320 322 321 321 321 324 327 331 334 339 367 364 362 363 363 361 363 362 363 363 364 359 360 359 358
286 292 291 291 295 298 299 302 307 305 303 308 308 308 311 313 315 316 317 319 319 320 319 320 321 323 328 331 334 342 363 362 360 360 361 361 359 355 315 326 318 319 327 343
293 296 297 296 297 298 297 299 304 306 307 308 310 312 312 314 315 315 315 316 318 316 317 318 318 319 322 326 329 331 336 339 358 351 358 358 359 359 354 334 309 307 313 316
299 298 294 295 293 297 297 299 303 304 304 305 306 308 310 309 309 308 310 311 314 314 313 314 314 315 319 322 326 329 326 316 332 341 355 358 359 358 358 353 351 351 316 319
300 300 298 298 298 298 299 298 296 298 301 302 304 304 305 304 305 305 308 310 310 310 310 311 313 314 318 319 321 330 326 320 324 333 337 347 360 358 357 358 357 357 355 321
300 300 299 297 297 297 298 297 295 295 298 300 301 302 304 304 304 305 305 307 306 306 308 309 309 312 316 315 316 320 328 326 323 330 335 334 344 353 347 348 349 349 350 355
298 296 298 297 298 298 298 298 298 298 298 299 300 302 302 303 303 303 303 304 307 306 307 308 308 312 312 312 313 317 319 333 328 332 334 339 338 339 344 345 346 346 344 343
302 303 301 301 299 299 300 299 298 298 298 299 301 301 301 301 300 301 303 303 303 303 304 307 309 309 310 310 312 320 322 324 331 327 329 334 334 335 341 340 338 334 338 335
303 303 303 302 302 301 301 301 299 299 299 300 299 299 300 300 301 301 302 301 300 298 300 304 307 306 307 309 312 314 314 316 318 317 320 320 328 326 321 322 324 324 323 325
304 305 304 303 304 303 302 303 303 300 300 300 300 299 299 300 301 302 301 299 300 301 302 303 302 302 302 304 307 305 306 306 306 306 305 310 310 310 311 307 309 311 312 312
304 304 303 304 304 305 304 304 303 302 302 301 300 299 299 300 301 300 299 298 301 303 303 304 303 301 301 301 301 300 300 299 298 299 300 299 299 299 300 301 302 302 301 302
304 304 304 303 303 304 304 305 304 304 303 302 303 301 300 299 301 301 302 302 302 304 303 303 302 304 302 303 300 298 297 296 295 295 295 296 295 294 294 295 295 295 295 295
304 304 304 304 303 303 304 305 305 304 303 302 302 303 302 302 301 299 298 304 302 302 303 303 304 303 302 300 300 299 299 298 296 295 295 294 294 294 293 293 293 293 293 293
306 305 304 304 306 304 303 306 304 305 304 304 303 304 304 301 302 304 304 302 302 302 302 302 303 304 303 302 301 300 299 299 298 297 296 294 295 294 294 294 293 293 293 293
306 306 305 304 302 302 305 306 304 304 304 304 304 304 304 304 302 303 303 303 301 302 302 303 304 304 304 303 302 301 299 299 299 298 298 296 295 294 294 294 294 294 293 293
306 304 303 304 303 302 302 303 302 303 304 302 302 304 304 304 304 304 304 304 304 303 301 301 301 301 301 302 302 302 302 301 300 298 298 298 297 296 295 295 294 294 293 293
305 300 303 302 303 302 301 302 302 300 302 304 303 303 304 304 303 304 302 303 303 303 302 302 301 301 301 301 301 301 302 301 299 302 301 299 298 298 297 296 296 296 296 295
Wind_Speed
22 27 20 21 19 15 22 21 21 18 22 14 20 19 20 20 5 9 7 9 10 8 17 17 15 20 20 19 20 21 20 22 22 19 19 18 17 17 18 15 15 14 13 13
20 22 21 24 22 20 22 29 23 23 20 16 18 20 18 17 25 12 15 16 16 13 10 21 28 20 20 20 20 18 19 21 18 19 19 18 17 17 17 17 16 15 15 15
17 18 21 22 24 19 18 18 13 18 19 16 8 14 14 15 16 18 12 14 15 14 12 11 6 7 17 18 17 18 17 18 19 19 19 20 18 17 17 18 16 16 16 15
8 11 14 16 18 20 21 20 19 21 20 20 16 17 13 10 16 17 9 10 11 13 14 14 13 14 18 18 17 16 17 17 18 18 20 19 18 19 17 16 17 16 16 16
4 10 17 18 14 8 13 18 15 14 15 19 22 16 19 12 19 19 13 3 9 11 15 13 14 15 10 15 19 18 16 18 19 19 18 19 20 19 16 16 15 16 15 16
9 8 10 15 11 11 11 10 8 12 16 18 20 15 12 2 14 18 14 13 13 13 14 14 13 15 14 11 16 19 20 17 15 17 17 19 19 18 17 16 16 13 16 16
11 12 12 12 1 9 10 6 10 11 13 19 16 17 12 12 9 7 12 12 12 10 10 11 11 19 17 12 15 17 17 15 17 16 18 18 16 15 16 16 15 16 16 14
10 13 16 14 5 11 11 15 15 14 14 16 22 24 17 8 8 8 10 13 15 11 12 13 15 20 15 14 9 10 15 17 15 15 14 14 17 16 15 16 16 15 14 13
6 5 14 15 17 18 15 17 20 20 15 15 18 19 16 11 9 9 9 11 12 12 10 11 14 15 16 9 9 11 14 16 14 16 15 14 16 16 14 15 14 13 12 12
9 6 19 18 18 16 15 17 20 21 16 14 18 18 15 10 8 8 9 9 12 12 11 13 14 15 14 14 18 14 14 15 13 14 14 15 12 13 13 13 13 12 12 12
6 9 18 8 17 18 22 23 23 22 14 13 13 11 9 9 10 11 8 8 8 9 10 12 13 14 15 16 16 5 11 12 12 12 13 14 13 13 13 14 14 13 12 12
4 10 6 11 14 17 16 25 16 16 13 14 5 3 8 6 5 5 7 8 7 8 9 10 11 12 14 14 14 11 4 8 9 10 11 11 13 8 7 7 10 14 13 9
1 9 6 10 10 15 15 22 13 7 7 4 6 4 6 1 6 7 10 13 8 9 10 11 11 12 15 14 14 11 9 10 4 10 10 12 12 12 10 2 3 2 11 11
1 4 7 9 9 13 14 18 14 9 7 8 8 7 6 8 8 9 10 10 8 9 11 10 10 11 14 14 13 9 10 10 7 9 7 12 12 12 11 9 8 6 4 4
4 1 5 6 10 12 10 13 16 14 11 9 9 8 10 9 9 9 9 9 9 9 9 10 11 12 13 14 13 11 7 7 8 7 6 6 12 13 8 12 11 9 7 5
7 6 7 6 10 12 11 12 12 13 14 11 9 9 8 7 8 7 9 8 9 9 10 10 11 12 10 12 13 10 8 6 7 6 7 8 8 6 5 6 3 5 3 0
8 8 9 7 6 9 10 10 10 9 9 11 11 8 8 6 5 8 7 10 10 11 12 11 12 12 12 13 11 7 9 4 5 4 4 5 6 9 1 1 4 3 5 5
7 5 7 7 8 9 7 9 9 10 9 9 10 9 9 7 8 8 11 9 10 12 14 12 13 12 12 14 14 4 4 8 6 7 9 6 7 8 5 3 9 11 9 10
4 5 7 4 5 5 6 8 9 8 8 9 9 9 9 10 8 8 8 11 14 12 13 13 18 16 14 19 16 10 11 10 10 11 10 11 9 11 13 14 11 14 11 11
8 4 2 4 6 5 4 6 9 7 2 3 4 6 8 9 10 8 10 12 9 7 7 14 13 14 15 19 20 12 12 12 12 11 12 11 11 12 10 14 14 12 12 11
7 6 1 7 6 13 6 5 6 8 4 1 4 5 7 7 8 9 9 8 10 7 11 18 12 8 9 13 13 12 12 12 11 10 11 11 12 11 15 12 10 9 7 7
3 5 12 2 5 6 12 7 6 8 9 5 3 6 7 7 8 7 7 7 6 10 9 8 8 20 15 19 11 12 12 13 12 11 13 11 10 9 9 8 9 9 9 8
6 5 4 4 4 4 6 11 8 9 10 8 6 6 6 4 6 6 8 8 6 7 8 8 11 21 21 12 11 11 12 13 12 11 10 8 7 9 9 10 7 7 9 9
5 5 4 5 10 7 5 14 9 7 8 10 8 4 2 4 5 3 3 1 8 3 6 2 4 8 16 11 12 11 11 11 11 10 10 12 9 9 9 9 8 7 8 11
2 4 6 8 7 3 6 8 14 5 9 5 10 5 5 6 4 5 4 2 5 1 9 8 3 5 8 10 11 11 12 11 11 10 9 9 10 10 10 10 9 8 9 9
3 5 2 3 5 5 5 9 5 6 3 7 3 8 2 4 4 5 5 5 7 7 10 10 10 10 10 10 11 11 10 10 10 10 11 11 11 10 9 8 9 9 9 9
6 11 2 4 1 7 6 10 8 8 3 6 2 6 2 1 5 4 4 7 7 8 9 9 10 10 10 10 11 11 9 9 7 10 10 8 8 7 7 7 7 7 8 8
Wind_Direction
275 287 295 286 286 288 257 251 249 244 245 254 24 348 331 357 338 358 323 222 226 267 168 189 177 180 179 187 188 187 191 193 197 199 201 199 201 196 207 203 200 202 202 210
258 271 287 275 264 264 279 243 249 261 287 302 76 309 300 347 346 35 9 6 10 5 18 185 187 183 184 185 185 188 190 194 192 193 197 201 203 201 198 206 204 200 205 207
261 268 283 259 254 245 262 273 276 262 270 293 318 275 323 317 331 323 352 354 353 348 341 354 177 180 190 190 184 188 190 190 190 189 194 200 198 204 202 201 203 203 207 208
275 296 251 263 260 263 252 261 259 266 275 290 292 289 276 285 298 303 315 326 347 335 332 327 322 201 179 184 188 189 193 189 189 192 193 192 200 204 206 202 205 205 206 211
235 265 272 293 247 342 327 242 238 287 310 315 306 281 258 272 266 292 301 280 309 308 320 330 321 316 326 187 185 193 196 197 192 191 192 191 197 201 203 204 205 208 209 208
227 241 267 261 50 5 346 265 289 358 324 325 333 310 277 286 35 355 349 350 335 317 302 302 304 296 285 264 183 196 203 200 192 191 192 194 195 198 199 203 208 206 209 212
239 249 252 270 44 333 258 302 351 352 345 336 331 319 359 38 71 338 319 319 300 297 292 272 319 332 269 261 222 196 194 198 196 191 194 191 192 196 199 204 207 209 212 212
226 244 255 11 187 222 351 338 321 331 330 330 325 322 355 12 17 10 339 339 341 352 355 358 347 325 244 245 259 202 187 197 192 195 191 187 190 194 199 203 207 211 214 212
297 316 334 354 333 328 329 316 307 309 312 317 314 316 323 344 4 357 357 341 344 345 346 356 349 333 341 319 231 212 184 190 196 191 191 194 190 197 198 202 206 209 208 214
325 350 336 323 312 312 323 302 289 285 288 295 299 306 317 329 2 352 4 347 351 344 350 349 349 340 339 336 327 194 185 184 187 185 189 198 194 195 199 200 203 207 214 208
268 300 321 334 331 327 327 292 272 269 266 276 268 296 304 321 353 348 348 356 3 2 359 353 347 340 344 343 339 256 176 184 186 187 187 195 210 197 200 205 203 204 204 213
300 312 287 295 312 322 316 322 237 224 251 256 225 279 302 304 357 343 338 347 347 0 359 357 351 344 344 347 350 6 228 192 191 195 188 196 201 191 44 225 164 195 203 199
245 325 306 335 310 341 342 334 15 91 95 51 49 355 294 42 35 13 7 349 10 354 355 359 350 342 340 348 351 13 17 6 252 204 200 193 200 207 191 125 44 195 161 129
189 338 357 355 339 353 356 349 356 29 41 54 38 39 32 44 30 19 6 346 4 11 2 355 346 343 338 340 348 5 23 14 1 314 226 194 197 211 187 176 179 187 223 137
163 110 84 16 1 1 10 10 0 4 7 31 35 37 39 25 21 12 356 352 1 11 2 356 352 346 342 348 345 360 16 18 355 344 353 284 193 199 190 184 187 191 160 152
117 91 122 52 38 10 20 21 15 358 356 9 24 22 35 27 20 2 0 352 0 7 358 1 353 334 345 353 346 333 346 21 332 335 352 21 349 111 83 94 4 72 75 102
39 30 18 75 44 43 36 34 10 6 359 3 11 19 36 30 11 28 6 6 8 19 1 7 352 342 359 352 339 317 322 314 266 305 349 356 349 11 207 170 177 220 200 218
34 42 41 44 25 33 75 67 35 18 24 6 7 20 26 22 37 32 29 24 22 25 6 1 3 356 0 357 332 310 350 349 18 32 31 3 14 3 40 323 39 27 2 43
149 71 68 25 83 57 43 107 74 41 15 10 23 37 27 22 24 32 33 32 32 23 8 4 12 13 16 12 4 14 22 15 24 31 27 20 36 44 38 32 37 50 28 35
158 95 57 36 56 107 82 67 118 106 61 26 35 27 36 30 17 24 37 41 38 46 6 25 22 21 23 20 21 22 22 36 35 33 33 37 30 36 54 47 38 27 32 31
87 115 131 28 6 124 127 72 74 95 146 91 49 37 34 39 57 37 38 43 10 360 35 32 31 32 42 40 38 38 36 38 40 41 55 47 29 35 45 33 43 39 35 31
2 56 86 169 1 60 130 133 100 90 87 68 114 80 66 30 33 56 54 37 50 1 48 48 34 43 42 47 43 42 41 40 39 42 46 47 52 53 67 52 49 46 47 45
32 46 25 85 294 58 95 138 120 98 94 79 66 69 64 63 61 65 63 53 44 37 56 57 77 71 53 43 37 40 52 52 51 52 55 55 57 61 61 66 52 50 56 48
333 45 352 354 99 296 357 119 121 121 131 107 92 87 82 66 48 53 124 133 272 340 64 74 50 56 73 61 56 49 39 58 57 50 55 51 48 53 57 61 64 54 62 64
293 2 34 320 312 201 98 112 139 160 101 123 120 93 53 69 63 93 51 96 210 291 50 35 301 353 78 83 81 73 68 55 47 65 67 61 55 48 46 44 45 47 53 53
172 260 161 22 340 359 32 75 44 119 120 88 54 117 124 103 58 46 62 30 57 85 75 65 35 54 54 50 81 69 93 91 80 73 62 54 58 63 63 53 50 51 51 49
351 347 68 259 14 67 37 44 35 50 28 103 103 110 110 49 72 30 342 59 40 37 79 66 67 58 54 55 50 50 82 74 81 109 100 91 82 74 66 61 70 66 66 62